Regional Weather Roundup
Issued by NWS Grand Forks, ND

Home | Current Version | Previous Version | Graphics & Text | Print | Product List | Glossary On
Versions: 1 2 3 4 5 6 7 8 9 10 11 12 13 14 15 16 17 18 19 20 21 22 23 24 25 26 27 28 29 30 31 32 33 34 35 36 37 38 39 40 41 42 43 44 45 46 47 48 49 50
000
ASUS43 KFGF 290210
RWRFGF
PRAIRIE TO PINES  WEATHER ROUNDUP
NATIONAL WEATHER SERVICE EASTERN NORTH DAKOTA/GRAND FORKS ND
900 PM CDT THU APR 28 2016

 **SATELLITE DATA USED TO AUGMENT SKY COVER AT AUTOMATED STATIONS**
 *****  WEATHER ACROSS EASTERN NORTH DAKOTA  *****

CITY           SKY/WX    TMP DP  RH WIND       PRES   REMARKS
GRAND FORKS    PTCLDY    50  28  42 NE5       30.13S
GRAND FRKS AFB NOT AVBL
DEVILS LAKE    CLEAR     46  29  51 SE5       30.15S
FARGO          CLOUDY    53  25  33 N9        30.09R
WAHPETON ARPT  CLOUDY    46  36  66 SW7       30.10R
$$

 ***** WEATHER ACROSS CENTRAL AND WESTERN NORTH DAKOTA  *****

CITY           SKY/WX    TMP DP  RH WIND       PRES   REMARKS
BISMARCK       CLOUDY    50  29  44 NE7       30.13R
MINOT          CLOUDY    49  22  34 N6        30.14S
JAMESTOWN      CLOUDY    49  30  48 NE6       30.12R
MINOT AFB      NOT AVBL
GARRISON         N/A     51  20  29 E9        30.13R
WILLISTON      CLOUDY    52  19  27 SE8       30.15R
DICKINSON      CLOUDY    46  27  47 NE9       30.10R
HETTINGER      CLOUDY    43  36  76 W6        30.13R
$$

 *****  OTHER AIRPORT OBSERVATIONS IN OUR AREA  *****

CITY           SKY/WX    TMP DP  RH WIND       PRES   REMARKS
WALHALLA       FAIR      50  21  32 N12       30.17S
GRAFTON AIRPOR FAIR      46  32  57 E5        30.16S
VALLEY CITY AR CLOUDY    48  28  46 NE7       30.13R
CANDO          FAIR      48  18  29 NE13      30.18R
CAVALIER APRT  FAIR      50  25  37 N12       30.16R
GWINNER        MOCLDY    48  41  76 CALM      30.10R
SHEYENNE NWR     N/A     50  30  46 S2        29.95
ROLLA          FAIR      41  19  42 NE9       30.19R
 ***** THE ABOVE OBSERVATIONS ARE NON NWS ARE NOT QUALITY
       CONTROLLED AND MAY MIS-REPORT RAIN FOR SNOW...
$$

  *****  WEATHER ACROSS NORTHERN MINNESOTA  *****

CITY           SKY/WX    TMP DP  RH WIND       PRES   REMARKS
FLAG ISLAND    PTCLDY    48  27  43 NE6       30.16R
WARROAD        PTCLDY    45  28  53 N5        30.17R
ROSEAU         PTCLDY    46  32  57 E5        30.16S
HALLOCK        PTCLDY    48  23  37 E6        30.16R
THF RVR FALLS  CLEAR     48  21  34 N12       30.15R
BAUDETTE       CLEAR     47  24  40 N9        30.14R
WASKISH        CLEAR     48  34  57 NE3       30.13R
CROOKSTON      CLEAR     48  28  46 NE7       30.14R
STEPHEN NDAWN    N/A     45  28  53 NE6         N/A
GREENBUSH NDAW   N/A     45  30  57 E3          N/A
$$
  *****  WEATHER ACROSS CENTRAL AND WEST MINNESOTA  *****

CITY           SKY/WX    TMP DP  RH WIND       PRES   REMARKS
FOSSTON        CLEAR     46  27  46 NE6       30.12S
BEMIDJI        CLEAR     47  28  47 NE6       30.11R
PARK RAPIDS    CLOUDY    52  25  35 NE5       30.08R
ELBOW LAKE     CLOUDY    43  38  82 S9        30.11R
WADENA         CLOUDY    46  36  66 S7        30.08R
DETROIT LAKES  CLOUDY    52  28  40 NE3       30.10R
MOORHEAD       CLOUDY    52  28  40 NE8       30.10R
FERGUS FALLS   CLOUDY    45  39  81 S6        30.09R
MORRIS MN      CLOUDY    45  39  81 SE7       30.10R
STAPLES        CLOUDY    45  36  70 S3        30.10R
$$
  *****  WEATHER ELSEWHERE ACROSS MINNESOTA  *****

CITY           SKY/WX    TMP DP  RH WIND       PRES   REMARKS
DULUTH         PTCLDY    38  25  59 E8        30.12R
INTRNTL FALLS  CLEAR     47  28  47 N5        30.14R
ELY            CLOUDY    46  28  49 SE5       30.12R
CLOQUET        MOCLDY    41  23  48 E9        30.11S
WHEATON        CLOUDY    45  39  81 S3        30.13R
BRAINERD       CLOUDY    46  24  42 SE3       30.10R
HIBBING        PTCLDY    41  26  55 SE6       30.11R
ALEXANDRIA     CLOUDY    42  36  79 S7        30.11R
SAINT CLOUD    LGT RAIN  41  39  93 SE6       30.10R
MINNEAPOLIS    LGT RAIN  40  37  89 VRB5      30.11R
$$

  *****  WEATHER ACROSS SOUTH DAKOTA  *****

CITY           SKY/WX    TMP DP  RH WIND       PRES   REMARKS
SIOUX FALLS    CLOUDY    39  35  86 NE9       30.09R
BROOKINGS      MIX PCPN  36  35  96 NE7       30.10R FOG
WATERTOWN      CLOUDY    39  36  89 E8        30.10S
HURON          CLOUDY    40  35  83 E9        30.12R
SISSETON         N/A     43  37  79 SW7       30.10R
ABERDEEN       CLOUDY    46  37  71 SE8       30.12R
MITCHELL       CLOUDY    41  36  82 NE7       30.11R
PIERRE         CLOUDY    44  36  73 CALM      30.10R
MOBRIDGE       CLOUDY    48  41  76 CALM      30.08R
RAPID CITY     CLOUDY    37  34  89 NE6       30.12R
$$

  *****  SOME WEATHER IN NEARBY STATES *****

CITY           SKY/WX    TMP DP  RH WIND       PRES   REMARKS
GLASGOW MT     CLOUDY    48  31  51 S6        30.12R
GREAT FALLS MT CLOUDY    40  32  73 E8        30.06S
CHEYENNE WY    CLOUDY    34  32  92 S5        30.02R
SCOTTSBLUFF NE CLOUDY    38  34  85 SE3       30.09R
OMAHA NE       CLOUDY    47  41  80 N10       30.06R
DES MOINES IA  CLOUDY    50  45  83 NW9       30.00R
DAVENPORT IA   CLOUDY    50  49  96 NE7       29.99R FOG
CHICAGO IL     CLOUDY    43  40  89 N8        29.99R
EAU CLAIRE WI  CLOUDY    39  37  92 N8        30.09R
LA CROSSE WI   CLOUDY    42  37  82 E9        30.07R
$$

  *****  SOME NATIONAL WEATHER *****

CITY           SKY/WX    TMP DP  RH WIND       PRES   REMARKS
LA GUARDIA NY  CLOUDY    50  35  56 SW6       30.06R
RALEIGH NC     CLOUDY    66  61  84 CALM      29.88F
ATLANTA GA     PTCLDY    74  60  61 W5        29.97R
NEW ORLEANS LA MOCLDY    76  71  85 SE7       29.94R
OKLAHOMA CITY  CLOUDY    68  51  54 E10       29.88R
ALBUQUERQUE NM MOCLDY    68   5   8 SW12      29.70R
SALT LAKE CITY CLOUDY    52  32  46 E15       29.78R
LOS ANGELES CA PTCLDY    60  50  69 W10       29.88R
BOISE ID       CLEAR     62  30  29 NW20G30   29.81R
SEATTLE WA     CLOUDY    59  45  59 W7        30.08S
$$

*** WEATHER ACROSS MANITOBA...SASKATCHEWAN AND ONTARIO ***
                ***ONTARIO***

CITY           SKY/WX    TMP DP  RH WIND       PRES   REMARKS
GERALDTON      MOCLDY    37  27  65 NE5       30.20R
THUNDER BAY    PTCLDY    36  28  75 N2        30.16S
SIOUX LOOKOUT  NOT AVBL
TORONTO        MOCLDY    45  23  42 E6        30.07R
BIG TROUT LK   CLOUDY    34  27  75 NE3       30.30R
PICKLE LAKE    CLOUDY    41  27  56 NE5       30.21R
DRYDEN         CLOUDY    46  28  49 N5        30.17S
KENORA         MOCLDY    46  30  53 NE2       30.18R
$$
                *** MANITOBA***

CITY           SKY/WX    TMP DP  RH WIND       PRES   REMARKS
BRANDON        MOCLDY    46  16  29 NE10      30.21S
DAUPHIN        CLEAR     43  18  36 E8        30.25R
ISLAND LAKE    CLEAR     41  10  28 N6        30.31S
PILOT MOUND      N/A     46  12  25 NE7         N/A
THE PAS        PTCLDY    46  23  39 S6        30.28S
THOMPSON       MOCLDY    48  18  29 E5        30.30F
WINNIPEG       MOCLDY    46  18  31 NE13      30.21R
LYNN LAKE      PTCLDY    54  23  30 SW3       30.20R
CHURCHILL      PTCLDY    25  23  93 E6        30.46S WCI  18
GILLAM         MOCLDY    37  16  41 E5        30.39R
$$
                ***SASKATCHEWAN***

CITY           SKY/WX    TMP DP  RH WIND       PRES   REMARKS
ESTEVAN        CLOUDY    48  18  29 E9        30.17R
KINDERSLEY     MOCLDY    52  25  35 SE10      30.12S
LLOYDMINSTER   CLOUDY    55  25  30 S9        30.10F
PRINCE ALBERT  MOCLDY    54  25  32 SE7       30.18F
REGINA         CLOUDY    55  18  22 E15       30.17S
YORKTON        CLEAR     50  21  32 SE9       30.21R
N. BATTLEFORD  CLEAR     55  25  30 SE9       30.16S
LA RONGE       PTCLDY    57  25  28 E7        30.17S
SASKATOON      MOCLDY    55  23  28 E13       30.19S
SWIFT CURRENT  MOCLDY    52  21  30 SE9       30.12S
$$
NOTE: THESE ARE AUTOMATED STATIONS WITH LIMITED QUALITY CONTROL
      "FAIR" INDICATES FEW OR NO CLOUDS BELOW 12,000 FEET WITH NO
      SIGNIFICANT WEATHER AND/OR OBSTRUCTIONS TO VISIBILITY.
      SKY/WX - SKY CONDITION AND SIGNIFICANT WEATHER.
      TMP - AIR TEMPERATURE.    DP   - DEWPOINT TEMPERATURE.
      RH  - RELATIVE HUMIDITY.  PRES - PRESSURE.
      HX  - HEAT INDEX.         WCI  - WIND CHILL INDEX.
$



USA.gov is the U.S. government's official web portal to all federal, state and local government web resources and services.